DW4326 Weather Reports


time (UTC)temp
C
wind
direction
speed
KPH
gust
KPH
rain 1hr
cm
rain 24hr
cm
rain mn
cm
humidity
%
barometer
mb
20260508063150 -1 9 0.0 0.0 0.00 0.03 0.00 91 1007.3
20260508062420 -1 9 0.0 0.0 0.00 0.03 0.00 90 1007.3
20260508060142 0 9 0.0 0.0 0.00 0.03 0.00 90 1007.3
20260508054644 0 9 0.0 0.0 0.00 0.03 0.00 89 1007.5
20260508053137 0 9 0.0 0.0 0.00 0.03 0.00 89 1007.4
20260508052422 0 9 0.0 0.0 0.00 0.03 0.00 88 1007.4
20260508050132 0 9 0.0 0.0 0.00 0.03 0.00 87 1007.8
20260508044633 0 9 0.0 0.0 0.00 0.03 0.00 86 1007.8
20260508043127 0 9 0.0 0.0 0.00 0.03 0.00 85 1007.8
20260508041626 0 9 0.0 0.0 0.00 0.03 0.00 84 1007.9
20260508040127 1 9 0.0 0.0 0.00 0.03 0.00 83 1007.9
20260508034626 1 9 0.0 0.0 0.00 0.03 0.03 83 1007.9
20260508033125 1 9 0.0 0.0 0.00 0.03 0.03 82 1007.7
20260508031626 2 9 0.0 0.0 0.00 0.03 0.03 81 1007.9
20260508030126 2 9 0.0 0.0 0.00 0.03 0.03 80 1007.7
20260508024625 2 9 0.0 0.0 0.00 0.03 0.03 79 1007.8
20260508023125 3 9 0.0 0.0 0.00 0.03 0.03 77 1007.8
20260508021622 3 9 0.0 0.0 0.00 0.03 0.03 74 1007.7
20260508020119 4 9 0.0 0.0 0.00 0.03 0.03 76 1007.6
20260508014619 5 9 0.0 0.0 0.00 0.03 0.03 74 1007.6
20260508013119 5 9 0.0 0.0 0.00 0.03 0.03 70 1007.4
20260508011620 6 9 0.0 1.6 0.00 0.05 0.03 70 1007.2
20260508010114 6 9 3.2 4.8 0.00 0.05 0.03 68 1007.2
20260508004613 7 9 1.6 4.8 0.00 0.08 0.03 64 1006.9
20260508003108 8 9 3.2 11.3 0.00 0.08 0.03 61 1006.8
20260508001609 8 0 3.2 6.4 0.00 0.10 0.03 56 1006.6
20260508000101 9 345 3.2 14.5 0.00 0.10 0.03 51 1006.5
20260507234602 10 314 3.2 14.5 0.00 0.10 0.03 46 1006.3
20260507233828 10 10 4.8 16.1 0.00 0.10 0.03 42 1006.2
20260507231555 11 17 4.8 17.7 0.00 0.10 0.03 42 1005.8
20260507230050 11 314 3.2 19.3 0.00 0.10 0.03 40 1005.6
20260507224551 11 22 8.0 19.3 0.00 0.10 0.03 40 1005.4
20260507223044 12 29 4.8 19.3 0.00 0.10 0.03 37 1005.3
20260507221543 12 84 4.8 20.9 0.00 0.10 0.03 37 1005.1
20260507220039 12 5 6.4 17.7 0.00 0.10 0.03 36 1005.2
20260507214544 12 340 4.8 22.5 0.00 0.10 0.03 37 1005.1
20260507214539 12 254 4.8 19.3 0.00 0.10 0.03 35 1005.1
20260507211539 13 11 8.0 24.1 0.00 0.10 0.03 35 1005.3
20260507210039 13 269 8.0 24.1 0.00 0.10 0.03 35 1005.0
20260507205309 13 138 4.8 19.3 0.00 0.10 0.03 33 1004.9
20260507203041 13 237 3.2 12.9 0.00 0.13 0.03 36 1004.9
20260507201535 13 19 4.8 22.5 0.00 0.25 0.03 38 1004.9
20260507200030 13 355 4.8 20.9 0.00 0.33 0.03 35 1005.0
20260507194530 13 159 8.0 27.4 0.00 0.36 0.03 36 1005.3
20260507193024 13 5 6.4 25.7 0.00 0.41 0.03 35 1005.3
20260507191526 13 36 6.4 20.9 0.00 0.46 0.03 41 1005.6
20260507190752 13 38 8.0 24.1 0.00 0.48 0.03 40 1005.3
20260507184521 14 329 3.2 17.7 0.00 0.48 0.03 43 1005.7
20260507183753 14 9 4.8 16.1 0.00 0.51 0.03 39 1005.6
20260507181521 14 327 4.8 25.7 0.00 0.51 0.03 37 1005.9
20260507180021 13 25 3.2 20.9 0.00 0.61 0.03 40 1005.8
20260507174521 13 0 8.0 20.9 0.00 0.71 0.03 43 1006.0
20260507173022 13 171 8.0 20.9 0.00 0.84 0.03 43 1006.1
20260507171520 14 23 6.4 43.5 0.00 0.97 0.03 41 1006.3
20260507170755 13 107 4.8 33.8 0.00 1.17 0.03 42 1006.7
20260507170020 13 0 9.7 43.5 0.00 1.09 0.03 40 1006.4
20260507163022 13 86 6.4 30.6 0.00 1.37 0.03 41 1006.9
20260507161518 12 321 11.3 30.6 0.00 1.42 0.03 43 1007.0
20260507160018 12 313 6.4 24.1 0.00 1.45 0.03 46 1007.4
20260507154518 12 327 4.8 24.1 0.00 1.47 0.03 54 1007.4
20260507153018 12 38 4.8 19.3 0.00 1.50 0.03 49 1007.3
20260507151519 11 347 4.8 19.3 0.00 1.50 0.03 57 1007.3
20260507150745 11 135 4.8 22.5 0.00 1.52 0.03 50 1007.3
20260507144513 12 30 4.8 14.5 0.00 1.55 0.03 52 1007.6
20260507143745 11 19 1.6 14.5 0.00 1.57 0.03 62 1007.6
20260507142243 11 294 3.2 20.9 0.00 1.60 0.03 65 1007.6
20260507140744 10 294 1.6 11.3 0.00 1.60 0.03 65 1007.5
20260507134510 10 71 3.2 17.7 0.00 1.60 0.03 65 1007.5
20260507133011 10 34 1.6 16.1 0.00 1.60 0.03 72 1007.5
20260507131509 9 46 4.8 19.3 0.00 1.60 0.03 76 1007.3
20260507130009 8 306 1.6 8.0 0.00 1.60 0.03 84 1007.3
20260507124508 7 34 3.2 11.3 0.00 1.60 0.03 87 1007.3
20260507123008 6 49 0.0 4.8 0.00 1.60 0.03 94 1007.1
20260507122240 5 49 1.6 11.3 0.00 1.60 0.03 93 1007.2
20260507120006 5 5 6.4 12.9 0.00 1.60 0.03 94 1007.3
20260507114507 5 5 1.6 8.0 0.03 1.60 0.03 98 1007.1
20260507113005 5 310 0.0 1.6 0.03 1.60 0.03 98 1007.0
20260507112231 5 16 0.0 0.0 0.03 1.60 0.03 98 1007.0
20260507110001 4 16 0.0 0.0 0.03 1.60 0.03 98 1007.1
20260507104500 4 16 0.0 0.0 0.00 1.57 0.00 98 1007.2
20260507102959 4 16 0.0 0.0 0.00 1.57 0.00 98 1007.0
20260507101500 3 16 0.0 0.0 0.00 1.57 0.00 98 1006.9
20260507100000 3 16 0.0 0.0 0.00 1.57 0.00 98 1006.6
20260507094500 3 16 0.0 0.0 0.00 1.57 0.00 97 1006.7
20260507093000 3 16 0.0 0.0 0.00 1.57 0.00 97 1006.9
20260507091459 3 16 0.0 0.0 0.00 1.57 0.00 97 1006.9
20260507090000 3 16 0.0 0.0 0.00 1.57 0.00 97 1007.1
20260507084459 4 16 0.0 0.0 0.00 1.57 0.00 97 1007.2
20260507083001 4 16 0.0 0.0 0.00 1.57 0.00 97 1007.0
20260507081453 4 16 0.0 0.0 0.00 1.57 0.00 97 1007.2
20260507075953 4 16 0.0 0.0 0.00 1.57 0.00 98 1007.3
20260507074446 4 16 0.0 0.0 0.00 1.57 0.00 97 1007.0
20260507072944 5 16 0.0 0.0 0.00 1.57 0.00 97 1006.9
20260507071442 5 16 0.0 0.0 0.00 1.57 0.00 97 1006.6
20260507065939 5 16 0.0 0.0 0.00 1.57 0.00 97 1006.6
20260507064439 5 16 0.0 0.0 0.00 1.57 0.00 97 1006.7